This demonstration page uses our WeatherBlox Daily Observations layout. Learn more.

Left ArrowRight Arrow

44.89941, -97.11507

Hourly Observations for October 1, 2022

Temp ( °F °C ) Dew Point ( °F °C ) Humidity (%) Winds ( mph kmh ) Pressure ( in mb ) Visibility ( mi km ) Precip ( " mm )
12:53 am 00:53 Clear 63 17.2 41 5 44 44 SSE 13 20 30.03 1017 10 16 0.00 0.00
1:53 am 01:53 Mostly Clear 63 17.2 42 5.6 46 46 SE 9 15 30.03 1017 10 16 0.00 0.00
2:53 am 02:53 Partly Cloudy 62 16.7 43 6.1 50 50 SSE 14 22 30.03 1017 10 16 0.00 0.00
3:53 am 03:53 Mostly Cloudy 60 15.6 44 6.7 55 55 SSE 12 19 30.04 1017 10 16 0.00 0.00
4:53 am 04:53 Clear 59 15 44 6.7 58 58 SSE 13 20 30.05 1018 10 16 0.00 0.00
5:53 am 05:53 Mostly Clear 58 14.4 44 6.7 60 60 SSE 10 17 30.05 1018 10 16 0.00 0.00
6:53 am 06:53 Clear 58 14.4 44 6.7 60 60 SE 9 15 30.07 1018 10 16 0.00 0.00
7:53 am 07:53 Sunny 57 13.9 43 6.1 59 59 ESE 6 9 30.08 1019 10 16 0.00 0.00
8:53 am 08:53 Sunny 60 15.6 42 5.6 51 51 SE 10 17 30.10 1019 10 16 0.00 0.00
9:53 am 09:53 Sunny 62 16.7 42 5.6 48 48 SE 13 20 30.10 1019 10 16 0.00 0.00
10:53 am 10:53 Sunny 65 18.3 42 5.6 43 43 SSE 14 22 30.11 1020 10 16 0.00 0.00
11:53 am 11:53 Sunny 68 20 42 5.6 39 39 SE 12 19 30.11 1020 10 16 0.00 0.00
12:53 pm 12:53 Sunny 72 22.2 43 6.1 35 35 SE 10 17 30.10 1019 10 16 0.00 0.00
1:53 pm 13:53 Mostly Sunny 72 22.2 47 8.3 41 41 E 9 15 30.09 1019 10 16 0.00 0.00
2:53 pm 14:53 Sunny 70 21.1 46 7.8 42 42 ESE 17 28 30.09 1019 10 16 0.00 0.00
3:53 pm 15:53 Sunny 71 21.7 46 7.8 41 41 E 13 20 30.09 1019 10 16 0.00 0.00
4:53 pm 16:53 Sunny 72 22.2 44 6.7 37 37 ESE 12 19 30.09 1019 10 16 0.00 0.00
5:53 pm 17:53 Sunny 72 22.2 44 6.7 37 37 ESE 8 13 30.10 1019 10 16 0.00 0.00
6:53 pm 18:53 Sunny 68 20 44 6.7 42 42 E 9 15 30.11 1020 10 16 0.00 0.00
7:53 pm 19:53 Clear 66 18.9 43 6.1 43 43 ESE 12 19 30.12 1020 10 16 0.00 0.00
8:53 pm 20:53 Clear 64 17.8 41 5 43 43 ESE 14 22 30.14 1021 10 16 0.00 0.00
9:53 pm 21:53 Clear 64 17.8 41 5 43 43 ESE 13 20 30.15 1021 10 16 0.00 0.00
10:53 pm 22:53 Clear 62 16.7 42 5.6 48 48 E 9 15 30.16 1022 10 16 0.00 0.00
11:53 pm 23:53 Clear 60 15.6 44 6.7 55 55 E 8 13 30.18 1022 10 16 0.00 0.00

Powered by AerisWeather